Storm Lake, IA

3:49 PM CST on December 09, 2016 (GMT -0600)
Storm Lake Municipal

Weather History for KSLB - May, 2014

Change the Weather History Date:

Tuesday, May 13, 2014

  Actual Average Record
Temperature  
Mean Temperature 48 °F -  
Max Temperature 55 °F 69 °F 91 °F (2007)
Min Temperature 41 °F 47 °F 26 °F (1997)
Degree Days  
Heating Degree Days 17    
Moisture  
Dew Point 37 °F    
Average Humidity 68    
Maximum Humidity 100    
Minimum Humidity 44    
Precipitation  
Precipitation 0.00 in - - ()
Sea Level Pressure  
Sea Level Pressure 30.15 in    
Wind  
Wind Speed 17 mph (NW)    
Max Wind Speed 23 mph    
Max Gust Speed 31 mph    
Visibility 10 miles    
Events      
Averages and records for this station are not official NWS values.
T = Trace of Precipitation, MM = Missing Value Source: NWS Daily Summary

Daily Weather History Graph

Daily Weather History Graph

Search for Another Location

Airport or City:

Trip Planner

Search our weather history database for the weather conditions in past years. The results will help you decide how hot, cold, wet, or windy it might be!

Date:

Astronomy

May. 13, 2014 Rise Set
Actual Time 6:00 AM CDT 8:34 PM CDT
Civil Twilight 5:28 AM CDT 9:06 PM CDT
Nautical Twilight 4:48 AM CDT 9:46 PM CDT
Astronomical Twilight 4:03 AM CDT 10:32 PM CDT
Moon 7:35 PM CDT (5/13) 5:20 AM CDT (5/13)
Length of Visible Light 15h 37m
Length of Day
14h 33m
Waxing Gibbous, 99% of the Moon is Illuminated
May 13
Waxing Gibbous
May 14
Full
May 21
Last Quarter
May 28
New
Jun 5
First Quarter

Hourly Weather History & Observations

Time (CDT) Temp. Windchill Dew Point Humidity Pressure Visibility Wind Dir Wind Speed Gust Speed Precip Events Conditions
12:15 AM 44.6 °F 38.1 °F 44.6 °F 100% 29.98 in 10.0 mi NW 13.8 mph 25.3 mph N/A   Overcast
12:35 AM 44.6 °F 37.4 °F 44.6 °F 100% 29.99 in 10.0 mi NNW 16.1 mph 23.0 mph N/A   Overcast
1:15 AM 44.6 °F 36.6 °F 42.8 °F 93% 30.00 in 10.0 mi NW 19.6 mph 31.1 mph N/A   Overcast
1:35 AM 44.6 °F 37.4 °F 42.8 °F 93% 30.02 in 10.0 mi NNW 16.1 mph 27.6 mph N/A   Overcast
1:55 AM 44.6 °F 35.9 °F 42.8 °F 93% 30.03 in 10.0 mi NW 23.0 mph 28.8 mph N/A   Overcast
2:15 AM 44.6 °F 36.1 °F 41.0 °F 87% 30.03 in - NNW 21.9 mph 28.8 mph N/A   Overcast
2:35 AM 44.6 °F 37.4 °F 42.8 °F 93% 30.03 in 10.0 mi NW 16.1 mph 23.0 mph N/A   Overcast
2:55 AM 44.6 °F 37.8 °F 42.8 °F 93% 30.03 in 10.0 mi NW 15.0 mph - N/A   Overcast
3:15 AM 44.6 °F 37.8 °F 42.8 °F 93% 30.04 in 10.0 mi NW 15.0 mph 21.9 mph N/A   Overcast
3:35 AM 44.6 °F 36.6 °F 41.0 °F 87% 30.04 in 10.0 mi NW 19.6 mph 26.5 mph N/A   Overcast
3:55 AM 44.6 °F 37.2 °F 42.8 °F 93% 30.04 in 10.0 mi NW 17.3 mph 24.2 mph N/A   Overcast
4:15 AM 44.6 °F 36.6 °F 42.8 °F 93% 30.03 in 10.0 mi NW 19.6 mph 26.5 mph N/A   Overcast
4:35 AM 42.8 °F 34.5 °F 42.8 °F 100% 30.03 in 10.0 mi NW 18.4 mph 25.3 mph N/A   Scattered Clouds
4:55 AM 42.8 °F 34.8 °F 41.0 °F 93% 30.04 in 10.0 mi NW 17.3 mph - N/A   Clear
5:15 AM 42.8 °F 34.8 °F 41.0 °F 93% 30.04 in 10.0 mi NW 17.3 mph - N/A   Mostly Cloudy
5:35 AM 41.0 °F 32.5 °F 41.0 °F 100% 30.06 in 10.0 mi NW 17.3 mph - N/A   Scattered Clouds
5:55 AM 41.0 °F 33.5 °F 39.2 °F 93% 30.06 in 10.0 mi NW 13.8 mph 23.0 mph N/A   Clear
6:15 AM 41.0 °F 32.8 °F 39.2 °F 93% 30.07 in 10.0 mi NW 16.1 mph - N/A   Clear
6:35 AM 41.0 °F 32.8 °F 39.2 °F 93% 30.08 in 10.0 mi NW 16.1 mph - N/A   Clear
6:55 AM 41.0 °F 32.5 °F 39.2 °F 93% 30.09 in 10.0 mi NW 17.3 mph - N/A   Clear
7:15 AM 41.0 °F 32.2 °F 39.2 °F 93% 30.10 in 10.0 mi NW 18.4 mph - N/A   Clear
8:15 AM 42.8 °F 33.8 °F 39.2 °F 87% 30.10 in 10.0 mi NW 21.9 mph 28.8 mph N/A   Clear
8:35 AM 44.6 °F 36.4 °F 39.2 °F 81% 30.11 in 10.0 mi NW 20.7 mph 28.8 mph N/A   Clear
9:15 AM 46.4 °F 38.3 °F 41.0 °F 81% 30.12 in 10.0 mi NNW 23.0 mph - N/A   Clear
11:35 AM 51.8 °F - 37.4 °F 58% 30.17 in 10.0 mi NNW 23.0 mph - N/A   Scattered Clouds
11:55 AM 51.8 °F - 35.6 °F 54% 30.18 in 10.0 mi NNW 21.9 mph 27.6 mph N/A   Mostly Cloudy
12:15 PM 51.8 °F - 37.4 °F 58% 30.19 in 10.0 mi NW 19.6 mph 25.3 mph N/A   Overcast
12:35 PM 51.8 °F - 35.6 °F 54% 30.20 in 9.0 mi NW 21.9 mph 29.9 mph N/A   Mostly Cloudy
12:55 PM 51.8 °F - 35.6 °F 54% 30.19 in 10.0 mi NW 19.6 mph 26.5 mph N/A   Overcast
1:15 PM 51.8 °F - 37.4 °F 58% 30.19 in 10.0 mi NW 19.6 mph - N/A   Overcast
1:35 PM 53.6 °F - 37.4 °F 54% 30.19 in 10.0 mi NW 21.9 mph 29.9 mph N/A   Overcast
1:55 PM 53.6 °F - 37.4 °F 54% 30.20 in 10.0 mi NNW 20.7 mph 28.8 mph N/A   Overcast
2:15 PM 53.6 °F - 35.6 °F 51% 30.20 in 10.0 mi NW 19.6 mph 29.9 mph N/A   Mostly Cloudy
2:35 PM 53.6 °F - 37.4 °F 54% 30.20 in 10.0 mi NNW 20.7 mph 28.8 mph N/A   Overcast
2:55 PM 53.6 °F - 35.6 °F 51% 30.20 in 10.0 mi NW 18.4 mph 25.3 mph N/A   Overcast
3:15 PM 53.6 °F - 35.6 °F 51% 30.20 in 10.0 mi NW 19.6 mph 25.3 mph N/A   Mostly Cloudy
3:35 PM 53.6 °F - 33.8 °F 47% 30.20 in 10.0 mi NW 20.7 mph - N/A   Mostly Cloudy
3:55 PM 53.6 °F - 37.4 °F 54% 30.19 in 10.0 mi NW 15.0 mph 25.3 mph N/A   Mostly Cloudy
4:15 PM 53.6 °F - 35.6 °F 51% 30.18 in 10.0 mi NNW 18.4 mph - N/A   Overcast
4:35 PM 53.6 °F - 35.6 °F 51% 30.19 in 10.0 mi NNW 19.6 mph - N/A   Overcast
4:55 PM 53.6 °F - 33.8 °F 47% 30.19 in 10.0 mi NNW 21.9 mph 27.6 mph N/A   Overcast
5:15 PM 55.4 °F - 33.8 °F 44% 30.19 in 10.0 mi NW 18.4 mph 25.3 mph N/A   Scattered Clouds
5:35 PM 55.4 °F - 33.8 °F 44% 30.20 in 10.0 mi NNW 17.3 mph 23.0 mph N/A   Scattered Clouds
5:55 PM 53.6 °F - 35.6 °F 51% 30.20 in 10.0 mi NNW 16.1 mph 24.2 mph N/A   Mostly Cloudy
6:15 PM 53.6 °F - 32.0 °F 44% 30.20 in 10.0 mi NNW 20.7 mph - N/A   Mostly Cloudy
6:35 PM 53.6 °F - 32.0 °F 44% 30.20 in 10.0 mi NNW 18.4 mph - N/A   Mostly Cloudy
6:55 PM 53.6 °F - 32.0 °F 44% 30.20 in 10.0 mi NW 17.3 mph 25.3 mph N/A   Scattered Clouds
7:15 PM 53.6 °F - 32.0 °F 44% 30.20 in 10.0 mi NW 15.0 mph - N/A   Scattered Clouds
7:35 PM 53.6 °F - 32.0 °F 44% 30.21 in 10.0 mi NW 13.8 mph 19.6 mph N/A   Partly Cloudy
7:55 PM 51.8 °F - 33.8 °F 50% 30.21 in 10.0 mi NW 11.5 mph - N/A   Mostly Cloudy
8:15 PM 51.8 °F - 33.8 °F 50% 30.22 in 10.0 mi NW 12.7 mph - N/A   Partly Cloudy
8:35 PM 50.0 °F - 33.8 °F 54% 30.23 in 10.0 mi NNW 10.4 mph - N/A   Mostly Cloudy
8:55 PM 50.0 °F - 35.6 °F 58% 30.23 in 10.0 mi NW 8.1 mph - N/A   Overcast
9:15 PM 50.0 °F - 33.8 °F 54% 30.24 in 10.0 mi NW 8.1 mph - N/A   Overcast
9:55 PM 48.2 °F - 33.8 °F 58% 30.26 in 10.0 mi NW 8.1 mph - N/A   Clear
10:15 PM 48.2 °F - 33.8 °F 58% 30.27 in 10.0 mi NW 8.1 mph - N/A   Clear
10:35 PM 46.4 °F 42.9 °F 33.8 °F 62% 30.28 in 10.0 mi NW 6.9 mph - N/A   Clear
10:55 PM 46.4 °F 43.5 °F 33.8 °F 62% 30.28 in 10.0 mi NW 5.8 mph - N/A   Clear
11:15 PM 46.4 °F 43.5 °F 33.8 °F 62% 30.29 in 10.0 mi NW 5.8 mph - N/A   Clear
11:35 PM 46.4 °F 42.9 °F 33.8 °F 62% 30.29 in 10.0 mi NW 6.9 mph - N/A   Clear
11:55 PM 46.4 °F 43.5 °F 33.8 °F 62% 30.29 in 10.0 mi NW 5.8 mph - N/A   Clear